CZ-6A DEB, 54592

Orbit data source: Space-Track

CZ-6A DEB, 54592 is space debris in SSO originally from a launch on Fri, 11 Nov 2022 UTC launched from the Taiyaun Space Center, China (TSC). Debris objects in space refer to the collection of defunct objects orbiting the Earth. Examples of debris include non-operational satellites, rocket bodies, and fragments generated from explosions, collisions, or faulty payload assembly.

Loading next visibility...
Identifier
54592, 2022-151MS
Orbit
SSO
Country
Flag of CNCN / PRC
Related business
Manufacturer
SAST
Mission
Spacecraft
Bus & Motor
Unknown
Mass
Unknown
Launch date (UTC)
2022-11-11 (4 years ago)
Launch vehicle
Unknown
Launch site
Taiyaun Space Center, China (TSC)
Object type
Payload
Rocket body
Debris
Shape & HBR
Unknown shape, 0.1 m
Radar Cross Section
Small (<0.1 m²)

Expand to show TLE details & history
Last TLE update: 12 hours ago

TLE from 12 hours ago
0 CZ-6A DEB
1 54592U 22151MS  26236.11374953  .00024992  00000-0  26815-2 0  9998
2 54592  98.5127 294.8159 0038647  53.8735 306.6047 14.88041199200188
Epoch: 2026-08-24T02:43Z
TLE epoch observation values (Epoch: 2026-08-24T02:43:47.959Z)
Latitude
0.00003°
Longitude
-78.53404°
Altitude
591.043 km
Speed
7.573 km/s
True Right ascension
19h 39m 15s
True Declination
0° 00' 00"
Sunlit
Object was in full shadow at epoch
Visualization orbit readout
Latitude
Unknown
Longitude
Unknown
Altitude
Unknown
Speed
Unknown
Apparent Right ascension
Unknown
Apparent Declination
Unknown
Sunlit
N/A
Visualization observer readout
Local Sidereal Time
05:48:07
Azimuth
Unknown
Elevation
Unknown
Doppler factor
Unknown
Orbital elements
Apogee altitude
628.088 km
Perigee altitude
574.142 km
Semi-major axis
6,979.252 km
Eccentricity
0.00386
Inclination
98.5127°
RAAN
294.8159°
Arg. of periapsis
53.8735°
True anomaly
306.24816°
Mean anomaly
306.6047°
Eccentric anomaly
306.42653°
Mean motion
3.72246 °/min
Orbital period
96.71 mins
BSTAR
0.0026815
Loading maneuver chart data...
Computing Atmospheric mass density...
Loading historical data...
Loading historical data...
Loading historical data...
Loading historical data...
Loading historical data...
Loading historical data...
Loading historical data...

Documentation

Showing up to 5 results
|